This demonstration page uses our WeatherBlox Daily Observations layout. Learn more.

Left ArrowRight Arrow

39.95238, -75.16362

Hourly Observations for June 7, 2023

Temp ( °F °C ) Dew Point ( °F °C ) Humidity (%) Winds ( mph kmh ) Pressure ( in mb ) Visibility ( mi km ) Precip ( " mm )
12:54 am 00:54 Cloudy with Haze 66 18.9 42 5.6 42 42 WNW 5 7 29.69 1006 4 6 0.00 0.00
1:54 am 01:54 Cloudy with Haze 65 18.3 42 5.6 43 43 NW 6 9 29.69 1005 3 5 0.00 0.00
2:54 am 02:54 Cloudy with Haze 61 16.1 43 6.1 51 51 W 5 7 29.68 1005 4 6 0.00 0.00
3:54 am 03:54 Mostly Cloudy with Haze 60 15.6 43 6.1 53 53 NW 6 9 29.67 1005 4 6 0.00 0.00
4:54 am 04:54 Mostly Cloudy with Haze 61 16.1 42 5.6 50 50 WNW 8 13 29.67 1005 4 6 0.00 0.00
5:17 am 05:17 Hazy 60 15.6 43 6.1 53 53 W 8 13 29.67 1005 2 3 0.00 0.00
5:54 am 05:54 Mostly Cloudy with Haze 60 15.6 43 6.1 53 53 WNW 9 15 29.67 1005 2 3 0.00 0.00
6:39 am 06:39 Mostly Cloudy with Haze 59 15 42 5.6 53 53 NW 7 11 29.68 1005 3 4 0.00 0.00
6:54 am 06:54 Mostly Cloudy with Haze 59 15 42 5.6 53 53 NW 8 13 29.68 1005 3 4 0.00 0.00
7:08 am 07:08 Mostly Cloudy with Haze 60 15.6 43 6.1 53 53 NW 7 11 29.68 1005 3 4 0.00 0.00
7:54 am 07:54 Hazy 62 16.7 43 6.1 50 50 NNW 9 15 29.68 1005 3 4 0.00 0.00
8:24 am 08:24 Hazy 64 17.8 42 5.6 45 45 NW 13 20 29.68 1005 3 5 0.00 0.00
8:54 am 08:54 Hazy 65 18.3 42 5.6 43 43 NW 12 19 29.69 1005 3 5 0.00 0.00
9:54 am 09:54 Hazy 68 20 41 5 37 37 NNW 14 22 29.69 1006 4 6 0.00 0.00
10:54 am 10:54 Hazy 70 21.1 42 5.6 36 36 WNW 12 19 29.69 1005 4 6 0.00 0.00
11:54 am 11:54 Hazy 72 22.2 39 3.9 30 30 NW 14 22 29.67 1005 4 6 0.00 0.00
12:54 pm 12:54 Hazy 72 22.2 36 2.2 27 27 WNW 10 17 29.66 1005 4 6 0.00 0.00
1:54 pm 13:54 Hazy 74 23.3 35 1.7 24 24 W 16 26 29.65 1004 4 6 0.00 0.00
2:54 pm 14:54 Hazy 74 23.3 34 1.1 23 23 W 7 11 29.64 1004 4 6 0.00 0.00
3:42 pm 15:42 Mostly Cloudy with Haze 75 23.9 34 1.1 22 22 NNW 16 26 29.64 1004 2 3 0.00 0.00
3:54 pm 15:54 Mostly Cloudy with Haze 75 23.9 35 1.7 23 23 WNW 15 24 29.63 1003 2 3 0.00 0.00
4:54 pm 16:54 Mostly Cloudy with Haze 74 23.3 30 -1.1 20 20 NW 20 31 29.64 1004 2 3 0.00 0.00
5:06 pm 17:06 Mostly Cloudy with Haze 73 22.8 25 -3.9 16 16 NW 16 26 29.64 1004 2 2 0.00 0.00
5:54 pm 17:54 Mostly Cloudy with Haze 73 22.8 28 -2.2 19 19 NW 12 19 29.65 1004 2 2 0.00 0.00
6:54 pm 18:54 Mostly Cloudy with Haze 72 22.2 30 -1.1 21 21 NW 8 13 29.65 1004 2 2 0.00 0.00
7:54 pm 19:54 Cloudy with Haze 70 21.1 31 -0.6 23 23 NNW 6 9 29.66 1004 2 2 0.00 0.00
8:22 pm 20:22 Cloudy with Haze 70 21.1 32 0 24 24 N 6 9 29.65 1004 2 2 0.00 0.00
8:54 pm 20:54 Cloudy with Haze 65 18.3 38 3.3 37 37 ENE 9 15 29.67 1005 2 2 0.00 0.00
9:21 pm 21:21 Cloudy with Haze 63 17.2 38 3.3 39 39 NE 6 9 29.68 1005 2 2 0.00 0.00
9:54 pm 21:54 Cloudy with Haze 64 17.8 37 2.8 37 37 ENE 8 13 29.68 1005 2 2 0.00 0.00
10:54 pm 22:54 Cloudy with Haze 62 16.7 38 3.3 41 41 ENE 6 9 29.71 1006 2 2 0.00 0.00
11:02 pm 23:02 Cloudy with Haze 62 16.7 38 3.3 41 41 E 5 7 29.71 1006 2 2 0.00 0.00
11:54 pm 23:54 Cloudy with Haze 61 16.1 42 5.6 50 50 Calm 29.71 1006 1 2 0.00 0.00

Powered by Vaisala Xweather